Torna al catalogo

CZ-4C DEB

AttivoSSO
NORAD 35249·DEBRIS·🇨🇳 China

Lanciato Nov 11, 2007 da Taiyuan Satellite Launch Center

Loading…

Prossimi Passaggi (prossime 24 ore)

TLE

AggiornatoSource: Space-Track

Epoca: Sep 14, 2026, 05:50 UTC

1 35249U 07055D   26257.24308373  .00001580  00000-0  32063-3 0  9993
2 35249  97.7733  64.1501 0196635 296.6245  61.4927 14.51053137983236

Traccia CZ-4C DEB in tempo reale con AllMySat

Download on the App Store